sat.trackr.live / text

‹ back to catalog

STARLINK-35880

NORAD 67187 · 2025-303AA

PAYLOAD ACTIVE UNKNOWN

§ Identity

Operator
Country
US
Launch date
2025-12-17
Launch site
AFETR
Launch vehicle
Mass (kg)
RCS (m²)

Purposes: comms

External: N2YO · Heavens-Above · Gunter

§ Orbital elements

Epoch: 2026-09-19T19:03:38.137824Z

Period
94.27 min
Inclination
43.0007°
Eccentricity
0.0001070
Mean motion
15.27580777 rev/d
Perigee alt
482.3 km
Apogee alt
483.8 km
Semi-major
6,861.2 km
B*
5.3377e-4
RAAN
294.2742°
Arg perigee
277.5963°
Mean anomaly
82.4767°
Rev number
4,242

§ Raw data

STARLINK-358801 67187U 25303AA  26262.79419141  .00014455  00000+0  53377-3 0  99922 67187  43.0007 294.2742 0001070 277.5963  82.4767 15.27580777 42427

JSON: /api/v1/satellites/67187 · /tle

For live sub-satellite position, see the globe view (requires WebGL).

§ Visibility from observer

Set your observer location to see the next 7 days of passes ≥ 10°. The values pass through the URL so the page stays shareable.

No JS? Fill the form by hand. The geolocation button needs JavaScript.